Retour au catalogue

BREEZE-KM R/B

ActifPO
NORAD 44518·ROCKET BODY·🇷🇺 Russia

Lancé Aug 30, 2019 depuis Plesetsk Cosmodrome

Loading…

Prochains Passages (prochaines 24 heures)

TLE

FraisSource: Space-Track

Époque: Sep 14, 2026, 08:44 UTC

1 44518U 19057B   26257.36442229  .00000028  00000-0  27056-4 0  9992
2 44518  99.1793  46.9321 0199860  78.1900 284.1619 14.25548299366257

Suivez BREEZE-KM R/B en temps réel avec AllMySat

Download on the App Store